[[{"header":{"parameterUnit":"m.s-1","parameterCategory":1,"la1":30.2991,"la2":30.254,"lo1":-89.0895,"lo2":-89.0444,"dy":0.0017,"dx":0.0017,"nx":28,"ny":28,"refTime":"2024-07-09T03:00:00:Z","depth":0,"parameterNumber":2,"parameterNumberName":"U-component_of_WINDS"},"data":[0,0,0,0,0,0,0,0,0,0,0,0,0,0,0,0,0,0,0,0,0,0,0,0,0,0,0,0,0,0,0,0,0,0,0,0,0,0,0,0,0,0,0,0,0,0,0,0,0,0,0,0,0,0,0,0,0,0,5.2832,5.2834,0,5.2993,5.2994,5.2996,5.2949,5.2945,5.2942,5.2939,5.31,5.3107,5.3114,0,0,0,0,0,0,0,0,0,0,0,0,0,5.2479,5.2486,5.2832,5.2834,5.2836,5.2992,5.2994,5.2997,5.2949,5.2945,5.2941,5.2938,5.3097,5.3106,5.3115,0,0,0,0,0,0,0,0,0,0,0,0,0,5.2635,5.2488,5.2832,5.2832,5.2833,5.2992,5.2995,5.2997,5.295,5.2945,5.294,5.2936,5.3094,5.3105,5.3116,5.3284,0,0,5.315,5.3155,0,0,0,0,0,0,0,0,5.2626,5.2648,5.283,5.2832,5.2834,5.2946,5.2929,5.3093,5.2951,5.2906,5.2939,5.2933,5.3052,5.3067,5.3107,5.3291,5.3298,5.3151,5.3158,5.3162,5.3165,0,0,0,0,0,0,0,5.2616,5.2641,5.2896,5.2832,5.2835,5.2821,5.2838,5.296,5.3005,5.2909,5.2906,5.2926,5.3052,5.3097,5.3111,5.3301,5.3151,5.316,5.3167,5.3172,5.3624,5.3629,0,0,0,0,0,0,5.2604,5.2632,5.289,5.29,5.2716,5.2832,5.285,5.2915,5.3003,5.3012,5.293,5.2923,5.308,5.3098,5.3116,5.3314,5.3162,5.3173,5.3179,5.3619,5.3625,5.3631,0,0,0,0,0,0,5.2597,5.2628,5.2884,5.2766,5.2797,5.2843,5.2916,5.2921,5.2965,5.3019,5.3026,5.2968,5.3077,5.3101,5.3241,5.3319,5.3178,5.3188,5.3613,5.3621,5.3628,5.3714,0,0,0,0,0,0,5.2587,5.2625,5.2691,5.2768,5.2804,5.3009,5.2921,5.2927,5.2984,5.2977,5.3056,5.3064,5.3075,5.3225,5.3252,5.3332,5.3196,5.3606,5.3616,5.3626,5.3704,5.3724,5.3741,0,0,0,0,0,5.2574,5.2709,5.2695,5.2726,5.2887,5.3013,5.3034,5.3044,5.2991,5.3056,5.309,5.3062,5.3307,5.324,5.327,5.3354,5.3601,5.3613,5.3625,5.3696,5.372,5.374,0,0,0,0,0,0,5.264,5.2719,5.2704,5.2868,5.2934,5.3005,5.3088,5.307,5.3152,5.3141,5.315,5.3168,5.3311,5.3347,5.3271,5.3518,5.3446,5.3464,5.3489,5.3513,5.353,5.3517,5.3205,0,0,0,0,0,5.2674,5.2772,5.2835,5.2973,5.3007,5.3042,5.3097,5.3099,5.3168,5.3195,5.324,5.3306,5.3397,5.3457,5.3545,5.371,5.3724,5.3782,5.38,5.3815,5.383,5.3915,5.394,5.3671,5.3671,5.3671,0,0,5.2745,5.28,5.2861,5.2988,5.3039,5.3137,5.3066,5.3174,5.3245,5.3211,5.3346,5.3381,5.3455,5.3607,5.3677,5.3642,5.3908,5.3831,5.3842,5.3849,5.393,5.3956,5.3978,5.3679,5.3678,5.3677,0,0,5.2922,5.2976,5.3095,5.3147,5.3226,5.3248,5.3276,5.335,5.3371,5.3507,5.3482,5.3567,5.3726,5.3778,5.3825,5.4019,5.3994,5.4048,5.4141,5.4224,5.4245,5.4264,5.4329,5.4352,5.4063,5.4063,5.4063,0,5.2999,5.3148,5.3158,5.3267,5.3321,5.3295,5.3413,5.3464,5.3567,5.3604,5.3564,5.3759,5.3808,5.397,5.4016,5.4058,5.4087,5.4037,5.4242,5.4261,5.4278,5.434,5.4365,5.4069,5.4068,5.4068,5.4067,0,5.3236,5.3339,5.3425,5.3525,5.3589,5.3703,5.3727,5.3791,5.3787,5.3812,5.3948,5.4005,5.4101,5.414,5.4138,5.4301,5.4276,5.4239,5.4166,5.4309,5.4367,5.4391,5.4077,5.4075,5.4073,5.4072,0,0,5.3459,5.3562,5.3593,5.3635,5.3719,5.3798,5.3908,5.4003,5.4055,5.4127,5.4217,5.435,5.4315,5.4369,5.4372,5.4445,5.4589,5.4399,5.44,5.4428,5.4767,5.4791,5.4819,5.4575,5.4579,5.4583,5.4759,0,5.364,5.3835,5.3846,5.4022,5.4114,5.409,5.4185,5.4246,5.4272,5.4352,5.438,5.4473,5.4422,5.4454,5.4525,5.4557,5.4657,5.4545,5.4655,5.4659,5.4633,5.485,5.4877,5.504,5.4782,5.4786,5.4789,0,5.3878,5.3956,5.4141,5.4207,5.4247,5.4333,5.4417,5.4496,5.4563,5.4576,5.4635,5.4627,5.4736,5.4661,5.481,5.4733,5.4779,5.4801,5.4807,5.4815,5.473,5.4859,5.5093,5.5116,5.4825,5.4823,5.482,0,5.4016,5.4168,5.4297,5.4335,5.4417,5.4477,5.4514,5.4576,5.4631,5.4705,5.474,5.4826,5.4872,5.4938,5.4952,5.4897,5.5099,5.5027,5.511,5.511,5.5151,5.5148,5.5391,5.5188,5.5187,5.5187,5.5186,0,5.4215,5.4328,5.4359,5.4438,5.4563,5.4573,5.4695,5.4728,5.4783,5.4865,5.485,5.4928,5.4943,5.5023,5.5035,5.5154,5.5176,5.5187,5.5188,5.5187,5.5184,5.5214,5.5201,5.5193,5.5192,5.5191,5.519,0,5.439,5.4416,5.4554,5.462,5.4639,5.4728,5.4783,5.4857,5.4881,5.4985,5.501,5.5047,5.514,5.5161,5.5272,5.5279,5.5419,5.5411,5.5396,5.5394,5.5475,5.5465,5.5743,5.5778,5.5555,5.5557,5.5559,0,5.4513,5.4599,5.4674,5.4728,5.4768,5.4857,5.4912,5.4925,5.4983,5.5063,5.5126,5.5218,5.5291,5.544,5.5475,5.5559,5.555,5.5641,5.5562,5.5556,5.5546,5.5539,5.5545,5.5655,5.5658,5.566,5.5661,0,5.4727,5.4735,5.4816,5.4901,5.4968,5.5035,5.5099,5.5144,5.5166,5.5231,5.5326,5.5383,5.5495,5.5584,5.5667,5.5703,5.5684,5.5686,5.5709,5.5706,5.5692,5.5696,5.5433,5.5679,5.5677,5.5676,5.5675,5.5674,5.4877,5.495,5.5014,5.5103,5.5153,5.5213,5.5284,5.5316,5.5396,5.5488,5.5491,5.5593,5.5653,5.5763,5.5804,5.5882,5.5853,5.5888,5.5896,5.5903,5.5908,5.5683,5.5898,5.5897,5.5897,5.5896,5.5896,0,5.5086,5.5126,5.5208,5.5298,5.5367,5.5346,5.5415,5.5473,5.5564,5.5623,5.5695,5.5801,5.5887,5.5928,5.6013,5.6067,5.606,5.6088,5.6082,5.609,5.5931,5.5901,5.6092,5.6092,5.6092,5.6092,5.6092,5.6091,5.5203,5.5325,5.534,5.5485,5.5523,5.5623,5.5664,5.5717,5.5763,5.5883,5.5955,5.5981,5.6032,5.6119,5.6195,5.6205,5.6235,5.6266,5.6271,5.6122,5.6101,5.6082,5.6054,5.6273,5.6274,5.6423,5.6424,5.6425]},{"header":{"parameterUnit":"m.s-1","parameterCategory":1,"la1":30.2991,"la2":30.254,"lo1":-89.0895,"lo2":-89.0444,"dy":0.0017,"dx":0.0017,"nx":28,"ny":28,"refTime":"2024-07-09T03:00:00:Z","depth":0,"parameterNumber":3,"parameterNumberName":"V-component_of_WINDS"},"data":[0,0,0,0,0,0,0,0,0,0,0,0,0,0,0,0,0,0,0,0,0,0,0,0,0,0,0,0,0,0,0,0,0,0,0,0,0,0,0,0,0,0,0,0,0,0,0,0,0,0,0,0,0,0,0,0,0,0,5.0064,5.0065,0,5.0113,5.0113,5.0114,5.0053,5.0051,5.0049,5.0047,5.0093,5.0096,5.0099,0,0,0,0,0,0,0,0,0,0,0,0,0,4.9915,4.9918,5.0064,5.0065,5.0066,5.0113,5.0113,5.0114,5.0054,5.0051,5.0048,5.0046,5.0092,5.0096,5.01,0,0,0,0,0,0,0,0,0,0,0,0,0,4.9973,4.9919,5.0064,5.0041,5.004,5.0112,5.0113,5.0114,5.0054,5.0051,5.0048,5.0044,5.0091,5.0095,5.01,5.0197,0,0,5.0115,5.0118,0,0,0,0,0,0,0,0,4.997,4.9979,5.0044,5.0043,5.0041,5.0074,5.0077,5.0142,5.0055,5.0049,5.0047,5.0043,5.0089,5.0094,5.011,5.0199,5.0201,5.0116,5.0119,5.0121,5.0122,0,0,0,0,0,0,0,4.9966,4.9976,5.0083,5.0045,5.0043,5.0027,5.0031,5.0089,5.0087,5.0049,5.0045,5.0051,5.0088,5.0105,5.0111,5.0202,5.0116,5.012,5.0123,5.0125,5.0369,5.0372,0,0,0,0,0,0,4.9965,4.9973,5.0082,5.0085,4.9997,5.0032,5.0037,5.0067,5.0086,5.0086,5.0054,5.0048,5.0099,5.0105,5.0112,5.0224,5.0121,5.0126,5.0128,5.0366,5.037,5.0374,0,0,0,0,0,0,4.9962,4.9976,5.008,5.0028,5.004,5.0038,5.0072,5.0069,5.0087,5.009,5.0089,5.0073,5.0096,5.0105,5.0176,5.0225,5.0128,5.0132,5.0361,5.0367,5.0372,5.0451,0,0,0,0,0,0,4.9958,4.9975,5.0013,5.0029,5.0043,5.0144,5.0075,5.0073,5.0096,5.0089,5.0107,5.0107,5.0094,5.0169,5.0181,5.023,5.0136,5.0357,5.0364,5.037,5.0444,5.0458,5.047,0,0,0,0,0,4.9953,5.0033,5.0015,5.0029,5.0091,5.0147,5.0155,5.014,5.01,5.0137,5.0139,5.0107,5.0218,5.0177,5.0189,5.0241,5.0354,5.0362,5.037,5.0438,5.0455,5.047,0,0,0,0,0,0,5.0022,5.0035,5.0015,5.0103,5.0125,5.0137,5.0184,5.0159,5.0191,5.0183,5.0162,5.0166,5.0241,5.0248,5.0202,5.0334,5.0279,5.029,5.0326,5.0343,5.0356,5.0352,5.014,0,0,0,0,0,5.0048,5.0094,5.0102,5.0179,5.0191,5.0186,5.021,5.0196,5.0217,5.0225,5.0232,5.0253,5.0292,5.0318,5.0355,5.0445,5.0446,5.0486,5.05,5.0511,5.052,5.0565,5.0582,5.04,5.04,5.04,0,0,5.0101,5.0114,5.0144,5.0193,5.0208,5.0255,5.0194,5.0246,5.028,5.0233,5.03,5.0305,5.0326,5.0407,5.0442,5.0415,5.0571,5.0521,5.053,5.0533,5.0575,5.0592,5.0607,5.0405,5.0404,5.0403,0,0,5.0221,5.0236,5.0301,5.0317,5.034,5.0336,5.0351,5.0367,5.0369,5.0436,5.0401,5.044,5.0509,5.0525,5.0542,5.0666,5.0636,5.0678,5.0747,5.0792,5.0806,5.0819,5.086,5.0876,5.0688,5.0688,5.0688,0,5.0283,5.0353,5.0336,5.0391,5.0412,5.0373,5.0436,5.0452,5.0486,5.0501,5.047,5.0554,5.0566,5.0648,5.0678,5.0694,5.0709,5.0675,5.0806,5.0818,5.0829,5.0869,5.0885,5.0693,5.0692,5.0692,5.0691,0,5.0428,5.0477,5.0525,5.0559,5.0586,5.0645,5.0635,5.0664,5.0648,5.0646,5.0713,5.0726,5.0763,5.0781,5.0766,5.0861,5.0842,5.0809,5.0753,5.0852,5.0888,5.0904,5.0699,5.0698,5.0696,5.0695,0,0,5.0592,5.0615,5.0633,5.0647,5.0669,5.0706,5.0762,5.0799,5.0823,5.0847,5.0892,5.095,5.0919,5.0938,5.0924,5.0963,5.1057,5.0925,5.0925,5.0947,5.1159,5.1183,5.1201,5.1039,5.1042,5.1044,5.1157,0,5.071,5.0808,5.0793,5.0887,5.093,5.0892,5.094,5.0958,5.0958,5.0993,5.0992,5.1033,5.099,5.1001,5.1038,5.1038,5.1099,5.103,5.1078,5.1079,5.1072,5.122,5.1245,5.1351,5.1171,5.1173,5.1175,0,5.0861,5.0891,5.0989,5.1002,5.1019,5.1063,5.1094,5.113,5.1148,5.1145,5.1166,5.1144,5.1197,5.1142,5.1214,5.1167,5.1185,5.1188,5.1192,5.1194,5.1132,5.1224,5.1385,5.14,5.1198,5.1196,5.1195,0,5.0968,5.1033,5.1099,5.1112,5.113,5.1161,5.117,5.1185,5.1208,5.1235,5.1248,5.1281,5.1299,5.1324,5.131,5.1272,5.1384,5.1328,5.1381,5.1381,5.1405,5.1403,5.1568,5.142,5.142,5.142,5.142,0,5.11,5.1161,5.1147,5.1187,5.1253,5.1235,5.13,5.1304,5.1318,5.1357,5.1327,5.1364,5.1345,5.138,5.137,5.1429,5.1438,5.1435,5.1431,5.1437,5.1437,5.1447,5.1438,5.1424,5.1423,5.1422,5.1422,0,5.1231,5.1224,5.1293,5.1304,5.1308,5.1356,5.1364,5.1401,5.1398,5.1448,5.1458,5.1453,5.1492,5.1482,5.1525,5.1518,5.1592,5.1581,5.1586,5.1583,5.1635,5.1629,5.1811,5.1833,5.1673,5.1675,5.1676,0,5.1314,5.136,5.1375,5.14,5.1411,5.145,5.1473,5.1456,5.148,5.1504,5.1537,5.1574,5.1603,5.1667,5.1666,5.1698,5.1685,5.1747,5.169,5.1693,5.1683,5.168,5.1683,5.1758,5.1759,5.1761,5.1762,0,5.1463,5.1457,5.1491,5.1523,5.155,5.1575,5.1597,5.1618,5.1603,5.1631,5.1671,5.1694,5.1737,5.1773,5.1802,5.1809,5.1783,5.178,5.1794,5.1799,5.1799,5.1797,5.1615,5.1776,5.1774,5.1773,5.1773,5.1772,5.157,5.1608,5.1624,5.1662,5.1677,5.1697,5.1731,5.1733,5.1766,5.18,5.1788,5.1834,5.1849,5.1885,5.1896,5.193,5.1906,5.1926,5.1931,5.1936,5.1941,5.1796,5.1935,5.1935,5.1935,5.1934,5.1934,0,5.1714,5.1723,5.1758,5.1789,5.1818,5.1792,5.1814,5.184,5.188,5.1897,5.1926,5.197,5.2005,5.2007,5.2038,5.2065,5.2054,5.2074,5.207,5.2072,5.1962,5.1946,5.2082,5.2082,5.2082,5.2082,5.2082,5.2082,5.1793,5.1854,5.185,5.1917,5.1925,5.197,5.1984,5.2002,5.2015,5.2066,5.2095,5.2096,5.2106,5.2138,5.2168,5.2167,5.2179,5.2204,5.2199,5.2095,5.208,5.2066,5.2051,5.2207,5.2208,5.2306,5.2307,5.2307]}]]